Montreal Saint-Hubert Longueuil Airport

Airport
ICAO code: 
CYHU
IATA Code: 
YHU
Summary
ICAO Region: 
NAM
Territory: 
Location: 
Saint Hubert, Quebec
Serving: 
Montreal
Elevation: 
90 ft
Coordinates: 
Aerial View: 
45° 31' 5.016" N, 73° 25' 0.984" W
Metar
Observation
CYHU 211000Z AUTO 36004KT 9SM CLR M27/M30 A3062 RMK SLP374
Station
Saint Hubert Airport
Date/Time
2022-01-21 10:00:00
Wind direction
360°
Wind speed
04 kts
Lowest cloud amount
n/a
Temperature
-27°C
Dew point
-30°C
Humidity
75%
Weather condition
n/a

Montréal Saint-Hubert Longueuil Airport, also called Montréal/Saint-Hubert Airport, is located in the Saint-Hubert borough of Longueuil, Quebec.

Climatology

Humid continental climate (Köppen climate classification Dfb)

Runways

Designator Length Width Surface Rops
10/28 853 46 ASP Yes/Yes
06R/24L 1195 30 ASP Yes/Yes
06L/24R 2390 46 ASP Yes/Yes
Airport map: 
Aerial View: 

Accidents and Serious Incidents at or in the vicinity of CYHU

SKYbrary Partners:

Safety knowledge contributed by: